Location: *
(43.0409°N, 0.1694°E)
Time: 22:31:51
(UTC+00:00)

USA 281 - Pass Details

Date: 03 October 2023
Orbit: 1077 x 1081 km, 106.0° (Epoch: 19 November)

Event Time Altitude Azimuth Distance (km) Brightness Sun altitude
Rises 02:50:24 0° 20° (NNE) 3,890 6.8 -33.9°
Reaches altitude 10° 02:52:56 10° 18° (NNE) 2,931 6.0 -33.5°
Enters shadow 02:58:12 54° 344° (NNW) 1,301 3.6 -32.6°
